Hourly Weather Roundup
Issued by NWS Central Illinois

Home | Current Version | Previous Version | Text Only | Print | Product List | Glossary On
Versions: 1 2 3 4 5 6 7 8 9 10 11 12 13 14 15 16 17 18 19 20 21 22 23 24 25 26 27 28 29 30 31 32 33 34 35 36 37 38 39 40 41 42 43 44 45 46 47 48 49 50
950
NZUS43 KILX 251910
HWRILX

Area Weather Roundup
National Weather Service Lincoln IL
200 PM CDT FRI MAY 25 2018

NOTE:  "FAIR" indicates few or no clouds below 12,000 feet, with
       no sigificant weather and/or obstructions to visibility.


CITY           SKY/WX    TMP DP  RH WIND       PRES   REMARKS
Bloomington    FAIR      86  59  39 S15       29.87F HX  85
Champaign      FAIR      90  55  30 S14G20    29.88F HX  88
Danville       FAIR      87  57  36 S6        29.87F HX  86
Decatur        FAIR      87  59  38 S7G21     29.88F HX  86
Effingham      FAIR      87  62  42 SE7       29.91F HX  87
Flora          FAIR      90  64  41 SW9       29.90F HX  91
Galesburg      TSTM      71  66  84 NE16      29.89F
Jacksonville   CLOUDY    85  67  53 S10G17    29.85F HX  88
Lacon          FAIR      83  64  51 SW7       29.85F HX  85
Lawrenceville  FAIR      90  51  26 SE6       29.90F HX  87
Litchfield     MOSUNNY   86  66  51 S10       29.88F HX  88
$$


CITY           SKY/WX    TMP DP  RH WIND       PRES   REMARKS
Lincoln        FAIR      90  64  41 S9        29.86F HX  91
Macomb         MOSUNNY   79  72  79 E7        29.88F HX  82
Mattoon        FAIR      86  62  44 S10       29.88F HX  86
Mt Carmel AP   FAIR      89  54  29 SE5       29.90F HX  87
Olney-Noble AP FAIR      87  57  35 S9        29.90F HX  86
Paris AP       FAIR      87  60  40 S10       29.91F HX  86
Peoria         CLOUDY    78  66  66 W10G20    29.87F THUNDER HX  80
Pontiac        FAIR      90  58  34 S5G10     29.86F HX  88
Rantoul        FAIR      90  58  34 S9        29.88F HX  88
Robinson       FAIR      87  59  38 S8        29.91F HX  86
Springfield    PTSUNNY   88  66  48 S12       29.86F HX  90
Taylorville    FAIR      86  63  45 S13       29.87F HX  87
$$

...REGIONAL REPORTS...


CITY           SKY/WX    TMP DP  RH WIND       PRES   REMARKS
Chicago O`Hare PTSUNNY   88  57  34 SW12      29.85F HX  87
Kankakee       PTSUNNY   88  56  33 SW9       29.87F HX  87
La Salle       FAIR      90  62  38 SW8       29.86F HX  90
Moline         PTSUNNY   84  65  52 S5        29.83F HX  86
Mount Sterling CLOUDY    83  67  57 SW6       29.84F HX  86
Mount Vernon   CLOUDY    88  68  51 SW9       29.89F HX  91
Pittsfield     CLOUDY    85  69  59 S10       29.86F HX  88
Quincy         CLOUDY    81  70  69 W9        29.86F HX  84
Rockford       CLOUDY    88  59  37 SW6       29.85F HX  87
$$


CITY           SKY/WX    TMP DP  RH WIND       PRES   REMARKS
Burlington     CLOUDY    83  68  60 SW6       29.84F HX  86
Cedar Rapids   FAIR      84  66  54 S14G20    29.81F HX  86
Des Moines     PTSUNNY   84  69  60 S8        29.81F HX  88
Kirksville     PTSUNNY   80  65  59 SW12G21   29.88F HX  82
Ottumwa        PTSUNNY   82  67  60 SW12      29.84F HX  84
St Louis       CLOUDY    86  68  54 S10G17    29.86F HX  89
$$


CITY           SKY/WX    TMP DP  RH WIND       PRES   REMARKS
Terre Haute    FAIR      89  57  33 VRB3      29.90F HX  88
Evansville     FAIR      86  64  47 MISG      29.92F HX  87
Indianapolis   FAIR      86  55  34 VRB6      29.93F HX  84
Lafayette      FAIR      86  54  33 CALM      29.89F HX  84
Madison        PTSUNNY   83  66  56 SW6G17    29.83F HX  85
Milwaukee      PTSUNNY   88  62  41 W9G24     29.84F HX  88
$$






USA.gov is the U.S. government's official web portal to all federal, state and local government web resources and services.